HISTORICAL SENSOR DATA

Sensor Data Report

DB LIVE
CURRENT TIME--:--:--
DEVICE NETWORK Gateway Status
13 ESP · realtime ~1s · history 60s
Weather WS-MOD-01
ONLINE
Actuator ACT-MOD-01
OFFLINE
Mainboard L3 MB-L3-01
ONLINE
Mainboard L5 MB-L5-01
ONLINE
Remote AC AC-REMOTE-01
ONLINE
PZEM L3-01 PWR-L3-01
OFFLINE
PZEM L3-02 PWR-L3-02
OFFLINE
PZEM L3-03 PWR-L3-03
OFFLINE
PZEM L3-04 PWR-L3-04
OFFLINE
PZEM L5-01 PWR-L5-01
ONLINE
PZEM L5-02 PWR-L5-02
ONLINE
PZEM L5-03 PWR-L5-03
OFFLINE
PZEM L5-04 PWR-L5-04
OFFLINE
REPORT FILTER

Periode & Sensor

DATABASE HISTORY
RESET
QUICK RANGE Hari ini 7 hari 30 hari
PERIODE31 Aug 2026sampai 06 Sep 2026
TOTAL DATA57,633sensor readings
MINIMUM-0.50sesuai filter
AVERAGE93.58sesuai filter
MAXIMUM32,564.20sesuai filter
REPORT RESULT

Data Sensor

31/08/2026 — 06/09/2026 EXPORT CSV
NOTANGGALWAKTUDEVICECHANNELSENSORVALUEUNIT
2801 06/09/2026 20:46:00 PWR-L5-02Power Meter L5 PZEM 02 PZEM-L5-02-ENERGY PZEM L5-02 Energy 0.04 kWh
2802 06/09/2026 20:46:00 MB-L3-01Mainboard Lantai 3 L3-AI-05 Analog Input 5 3.12 V
2803 06/09/2026 20:46:00 PWR-L5-02Power Meter L5 PZEM 02 PZEM-L5-02-CURR PZEM L5-02 Current 0.00 A
2804 06/09/2026 20:45:00 PWR-L5-01Power Meter L5 PZEM 01 PZEM-L5-01-ENERGY PZEM L5-01 Energy 0.03 kWh
2805 06/09/2026 20:45:00 MB-L5-01Mainboard Lantai 5 L5-AI-06 Analog Input 6 3.05 V
2806 06/09/2026 20:45:00 MB-L5-01Mainboard Lantai 5 L5-SHT-02-T SHT20 2 Temperature 29.90 °C
2807 06/09/2026 20:45:00 MB-L5-01Mainboard Lantai 5 L5-RAD-02 Radiation 2 1.00 W/m²
2808 06/09/2026 20:45:00 WS-MOD-01Weather Station Module WS-RH Kelembapan Udara 69.70 %RH
2809 06/09/2026 20:45:00 MB-L3-01Mainboard Lantai 3 L3-AI-01 Analog Input 1 3.12 V
2810 06/09/2026 20:45:00 PWR-L5-01Power Meter L5 PZEM 01 PZEM-L5-01-POWER PZEM L5-01 Active Power 10.60 W
2811 06/09/2026 20:45:00 MB-L3-01Mainboard Lantai 3 L3-SHT-03-T SHT20 3 Temperature 29.50 °C
2812 06/09/2026 20:45:00 PWR-L5-02Power Meter L5 PZEM 02 PZEM-L5-02-FREQ PZEM L5-02 Frequency 50.00 Hz
2813 06/09/2026 20:45:00 WS-MOD-01Weather Station Module WS-WIND Kecepatan Angin 1.61 m/s
2814 06/09/2026 20:45:00 PWR-L5-01Power Meter L5 PZEM 01 PZEM-L5-01-CURR PZEM L5-01 Current 0.12 A
2815 06/09/2026 20:45:00 MB-L5-01Mainboard Lantai 5 L5-ST-01 Surface Temperature 1 25.20 °C
2816 06/09/2026 20:45:00 MB-L3-01Mainboard Lantai 3 L3-RAD-01 Radiation 1 1.00 W/m²
2817 06/09/2026 20:45:00 PWR-L5-02Power Meter L5 PZEM 02 PZEM-L5-02-POWER PZEM L5-02 Active Power 0.90 W
2818 06/09/2026 20:45:00 MB-L5-01Mainboard Lantai 5 L5-SHT-01-RH SHT20 1 Humidity 44.90 %RH
2819 06/09/2026 20:45:00 MB-L5-01Mainboard Lantai 5 L5-ST-02 Surface Temperature 2 25.30 °C
2820 06/09/2026 20:45:00 MB-L5-01Mainboard Lantai 5 L5-LUX-06 Illuminance / LUX 6 0.10 lux
2821 06/09/2026 20:45:00 MB-L3-01Mainboard Lantai 3 L3-AI-02 Analog Input 2 3.12 V
2822 06/09/2026 20:45:00 PWR-L5-02Power Meter L5 PZEM 02 PZEM-L5-02-VOLT PZEM L5-02 Voltage 226.40 V
2823 06/09/2026 20:45:00 PWR-L5-01Power Meter L5 PZEM 01 PZEM-L5-01-VOLT PZEM L5-01 Voltage 226.60 V
2824 06/09/2026 20:45:00 MB-L3-01Mainboard Lantai 3 L3-LUX-06 Illuminance / LUX 6 553.00 lux
2825 06/09/2026 20:45:00 AC-REMOTE-01Remote AC AC-SETPOINT AC Set Temperature 23.00 °C
2826 06/09/2026 20:45:00 MB-L5-01Mainboard Lantai 5 L5-SHT-03-RH SHT20 3 Humidity 45.00 %RH
2827 06/09/2026 20:45:00 MB-L5-01Mainboard Lantai 5 L5-HFT-01 Heat Flow Temperature 1 25.00 °C
2828 06/09/2026 20:45:00 MB-L3-01Mainboard Lantai 3 L3-SHT-01-T SHT20 1 Temperature 29.20 °C
2829 06/09/2026 20:45:00 AC-REMOTE-01Remote AC AC-FAN AC Fan Speed 0.00 code
2830 06/09/2026 20:45:00 MB-L5-01Mainboard Lantai 5 L5-LUX-03 Illuminance / LUX 3 0.20 lux
2831 06/09/2026 20:45:00 MB-L3-01Mainboard Lantai 3 L3-SHT-03-RH SHT20 3 Humidity 44.30 %RH
2832 06/09/2026 20:45:00 MB-L5-01Mainboard Lantai 5 L5-BGT-01 Black Globe Temperature 1 27.50 °C
2833 06/09/2026 20:45:00 MB-L5-01Mainboard Lantai 5 L5-RAD-01 Radiation 1 1.00 W/m²
2834 06/09/2026 20:45:00 MB-L3-01Mainboard Lantai 3 L3-AI-03 Analog Input 3 3.12 V
2835 06/09/2026 20:45:00 MB-L5-01Mainboard Lantai 5 L5-AI-01 Analog Input 1 3.05 V
2836 06/09/2026 20:45:00 MB-L3-01Mainboard Lantai 3 L3-RAD-02 Radiation 2 1.00 W/m²
2837 06/09/2026 20:45:00 MB-L5-01Mainboard Lantai 5 L5-LUX-01 Illuminance / LUX 1 0.10 lux
2838 06/09/2026 20:45:00 MB-L5-01Mainboard Lantai 5 L5-HFT-02 Heat Flow Temperature 2 24.90 °C
2839 06/09/2026 20:45:00 MB-L5-01Mainboard Lantai 5 L5-BGT-02 Black Globe Temperature 2 27.30 °C
2840 06/09/2026 20:45:00 MB-L5-01Mainboard Lantai 5 L5-AI-02 Analog Input 2 3.05 V
2841 06/09/2026 20:45:00 MB-L3-01Mainboard Lantai 3 L3-AI-04 Analog Input 4 3.12 V
2842 06/09/2026 20:45:00 MB-L3-01Mainboard Lantai 3 L3-LUX-03 Illuminance / LUX 3 744.90 lux
2843 06/09/2026 20:45:00 WS-MOD-01Weather Station Module WS-PRES Tekanan Udara 912.00 hPa
2844 06/09/2026 20:45:00 MB-L5-01Mainboard Lantai 5 L5-SHT-03-T SHT20 3 Temperature 29.60 °C
2845 06/09/2026 20:45:00 MB-L5-01Mainboard Lantai 5 L5-SHT-01-T SHT20 1 Temperature 29.40 °C
2846 06/09/2026 20:45:00 PWR-L5-02Power Meter L5 PZEM 02 PZEM-L5-02-PF PZEM L5-02 Power Factor 1.00
2847 06/09/2026 20:45:00 MB-L5-01Mainboard Lantai 5 L5-BGT-03 Black Globe Temperature 3 27.20 °C
2848 06/09/2026 20:45:00 WS-MOD-01Weather Station Module WS-TEMP Suhu Udara 21.70 °C
2849 06/09/2026 20:45:00 MB-L5-01Mainboard Lantai 5 L5-AI-03 Analog Input 3 3.05 V
2850 06/09/2026 20:45:00 PWR-L5-02Power Meter L5 PZEM 02 PZEM-L5-02-ENERGY PZEM L5-02 Energy 0.04 kWh
2851 06/09/2026 20:45:00 MB-L3-01Mainboard Lantai 3 L3-AI-05 Analog Input 5 3.12 V
2852 06/09/2026 20:45:00 PWR-L5-02Power Meter L5 PZEM 02 PZEM-L5-02-CURR PZEM L5-02 Current 0.00 A
2853 06/09/2026 20:45:00 MB-L5-01Mainboard Lantai 5 L5-AI-04 Analog Input 4 3.05 V
2854 06/09/2026 20:45:00 AC-REMOTE-01Remote AC AC-POWER AC Power State 1.00 state
2855 06/09/2026 20:45:00 MB-L3-01Mainboard Lantai 3 L3-LUX-05 Illuminance / LUX 5 396.60 lux
2856 06/09/2026 20:45:00 MB-L3-01Mainboard Lantai 3 L3-SHT-01-RH SHT20 1 Humidity 44.60 %RH
2857 06/09/2026 20:45:00 MB-L3-01Mainboard Lantai 3 L3-LUX-04 Illuminance / LUX 4 588.30 lux
2858 06/09/2026 20:45:00 PWR-L5-01Power Meter L5 PZEM 01 PZEM-L5-01-PF PZEM L5-01 Power Factor 0.40
2859 06/09/2026 20:45:00 AC-REMOTE-01Remote AC AC-MODE AC Operating Mode 1.00 code
2860 06/09/2026 20:45:00 MB-L3-01Mainboard Lantai 3 L3-SHT-02-T SHT20 2 Temperature 29.40 °C
2861 06/09/2026 20:45:00 MB-L3-01Mainboard Lantai 3 L3-AI-06 Analog Input 6 3.12 V
2862 06/09/2026 20:45:00 MB-L3-01Mainboard Lantai 3 L3-SHT-02-RH SHT20 2 Humidity 44.20 %RH
2863 06/09/2026 20:45:00 MB-L5-01Mainboard Lantai 5 L5-SHT-02-RH SHT20 2 Humidity 44.30 %RH
2864 06/09/2026 20:45:00 MB-L5-01Mainboard Lantai 5 L5-LUX-02 Illuminance / LUX 2 0.20 lux
2865 06/09/2026 20:45:00 MB-L5-01Mainboard Lantai 5 L5-AI-05 Analog Input 5 3.05 V
2866 06/09/2026 20:45:00 PWR-L5-01Power Meter L5 PZEM 01 PZEM-L5-01-FREQ PZEM L5-01 Frequency 50.00 Hz
2867 06/09/2026 20:45:00 WS-MOD-01Weather Station Module WS-DIR Arah Angin 187.00 °
2868 06/09/2026 20:45:00 MB-L3-01Mainboard Lantai 3 L3-LUX-01 Illuminance / LUX 1 510.80 lux
2869 06/09/2026 20:45:00 MB-L3-01Mainboard Lantai 3 L3-LUX-02 Illuminance / LUX 2 626.30 lux
2870 06/09/2026 20:44:00 PWR-L5-02Power Meter L5 PZEM 02 PZEM-L5-02-POWER PZEM L5-02 Active Power 1.10 W
2871 06/09/2026 20:44:00 MB-L5-01Mainboard Lantai 5 L5-SHT-01-RH SHT20 1 Humidity 44.80 %RH
2872 06/09/2026 20:44:00 MB-L5-01Mainboard Lantai 5 L5-ST-02 Surface Temperature 2 25.20 °C
2873 06/09/2026 20:44:00 MB-L5-01Mainboard Lantai 5 L5-LUX-06 Illuminance / LUX 6 0.10 lux
2874 06/09/2026 20:44:00 MB-L3-01Mainboard Lantai 3 L3-AI-02 Analog Input 2 3.12 V
2875 06/09/2026 20:44:00 PWR-L5-02Power Meter L5 PZEM 02 PZEM-L5-02-VOLT PZEM L5-02 Voltage 226.30 V
2876 06/09/2026 20:44:00 PWR-L5-01Power Meter L5 PZEM 01 PZEM-L5-01-VOLT PZEM L5-01 Voltage 226.40 V
2877 06/09/2026 20:44:00 MB-L3-01Mainboard Lantai 3 L3-LUX-06 Illuminance / LUX 6 555.60 lux
2878 06/09/2026 20:44:00 AC-REMOTE-01Remote AC AC-SETPOINT AC Set Temperature 23.00 °C
2879 06/09/2026 20:44:00 MB-L5-01Mainboard Lantai 5 L5-SHT-03-RH SHT20 3 Humidity 45.00 %RH
2880 06/09/2026 20:44:00 MB-L5-01Mainboard Lantai 5 L5-HFT-01 Heat Flow Temperature 1 24.90 °C
2881 06/09/2026 20:44:00 MB-L3-01Mainboard Lantai 3 L3-SHT-01-T SHT20 1 Temperature 29.10 °C
2882 06/09/2026 20:44:00 AC-REMOTE-01Remote AC AC-FAN AC Fan Speed 0.00 code
2883 06/09/2026 20:44:00 MB-L5-01Mainboard Lantai 5 L5-LUX-03 Illuminance / LUX 3 0.20 lux
2884 06/09/2026 20:44:00 MB-L3-01Mainboard Lantai 3 L3-SHT-03-RH SHT20 3 Humidity 44.40 %RH
2885 06/09/2026 20:44:00 MB-L5-01Mainboard Lantai 5 L5-BGT-01 Black Globe Temperature 1 27.50 °C
2886 06/09/2026 20:44:00 MB-L5-01Mainboard Lantai 5 L5-RAD-01 Radiation 1 1.00 W/m²
2887 06/09/2026 20:44:00 MB-L3-01Mainboard Lantai 3 L3-AI-03 Analog Input 3 3.12 V
2888 06/09/2026 20:44:00 MB-L5-01Mainboard Lantai 5 L5-AI-01 Analog Input 1 3.05 V
2889 06/09/2026 20:44:00 MB-L5-01Mainboard Lantai 5 L5-LUX-04 Illuminance / LUX 4 0.10 lux
2890 06/09/2026 20:44:00 MB-L3-01Mainboard Lantai 3 L3-RAD-02 Radiation 2 1.00 W/m²
2891 06/09/2026 20:44:00 MB-L5-01Mainboard Lantai 5 L5-LUX-01 Illuminance / LUX 1 0.10 lux
2892 06/09/2026 20:44:00 MB-L5-01Mainboard Lantai 5 L5-HFT-02 Heat Flow Temperature 2 24.90 °C
2893 06/09/2026 20:44:00 MB-L5-01Mainboard Lantai 5 L5-BGT-02 Black Globe Temperature 2 27.40 °C
2894 06/09/2026 20:44:00 MB-L5-01Mainboard Lantai 5 L5-AI-02 Analog Input 2 3.05 V
2895 06/09/2026 20:44:00 MB-L3-01Mainboard Lantai 3 L3-AI-04 Analog Input 4 3.12 V
2896 06/09/2026 20:44:00 MB-L3-01Mainboard Lantai 3 L3-LUX-03 Illuminance / LUX 3 745.90 lux
2897 06/09/2026 20:44:00 WS-MOD-01Weather Station Module WS-PRES Tekanan Udara 912.00 hPa
2898 06/09/2026 20:44:00 MB-L5-01Mainboard Lantai 5 L5-SHT-03-T SHT20 3 Temperature 29.60 °C
2899 06/09/2026 20:44:00 MB-L5-01Mainboard Lantai 5 L5-SHT-01-T SHT20 1 Temperature 29.50 °C
2900 06/09/2026 20:44:00 PWR-L5-02Power Meter L5 PZEM 02 PZEM-L5-02-PF PZEM L5-02 Power Factor 1.00
Menampilkan maksimal 100 data per halaman